Regional Weather Roundup
Issued by NWS Cleveland, OH

Home | Current Version | Previous Version | Graphics & Text | Print | Product List | Glossary On
Versions: 1 2 3 4 5 6 7 8 9 10 11 12 13 14 15 16 17 18 19 20 21 22 23 24 25 26 27 28 29 30 31 32 33 34 35 36 37 38 39 40 41 42 43 44 45 46 47 48 49 50
000
ASUS41 KCLE 210510
RWRCLE
OHIO REGIONAL WEATHER ROUNDUP
NATIONAL WEATHER SERVICE CLEVELAND, OH
1200 AM EST SUN DEC 21 2014

NOTE: "FAIR" INDICATES FEW OR NO CLOUDS BELOW 12,000 FEET WITH NO
SIGNIFICANT WEATHER AND/OR OBSTRUCTIONS TO VISIBILITY.

OHZ001>008-015>018-024>027-034-035-043-044-210600-
   NORTHWEST OHIO

CITY           SKY/WX    TMP DP  RH WIND       PRES   REMARKS
DEFIANCE       CLEAR     22  19  89 CALM      30.29S FOG
FINDLAY        PTCLDY    25  21  85 CALM      30.27S FOG
TOLEDO EXPRESS MOCLDY    27  23  85 CALM      30.28S
TOLEDO EXEC    CLOUDY    30  24  78 S3        30.29S
LIMA           CLOUDY    32  25  75 SW3       30.27S HAZE
$$

OHZ009>014-019>023-028>033-038-089-210600-
   NORTHEAST OHIO

CITY           SKY/WX    TMP DP  RH WIND       PRES   REMARKS
CLE-HOPKINS    CLOUDY    29  23  78 SW3       30.30F
CLE-LAKEFRONT  CLOUDY    31  23  72 W7        30.28S WCI  24
CUY CO. ARPT   NOT AVBL
LORAIN-ELYRIA  MOCLDY    26  24  92 S3        30.28S
ASHTABULA      CLOUDY    29  24  82 CALM      30.27F
AKRON-CANTON   FLURRIES  29  22  75 CALM      30.26S
WOOSTER        CLOUDY    27  23  85 CALM      30.26F
MANSFIELD      CLOUDY    29  24  82 CALM      30.25S
YOUNGSTOWN     CLOUDY    28  22  78 CALM      30.25F
$$

OHZ042-051>053-060>062-070>072-077>081-210600-
  SOUTHWEST OHIO

CITY           SKY/WX    TMP DP  RH WIND       PRES   REMARKS
CINC-COVINGTON CLOUDY    32  24  72 N3        30.29S
CINC-LUNKEN    CLOUDY    31  27  85 CALM      30.33R
HAMILTON       CLEAR     20  18  92 CALM      30.32R FOG
DAYTON         MOCLDY    25  21  85 CALM      30.29R
WRIGHT-PAT AFB CLOUDY    29  25  85 CALM      30.30R
DAYTON GENERAL MOCLDY    26  23  88 CALM      30.28R
WILMINGTON     CLEAR     25  22  88 CALM      30.28R FOG
$$

OHZ036-037-039>041-045>050-054>059-063>069-073>076-082>088-210600-
  CENTRAL AND SOUTHEAST OHIO

CITY           SKY/WX    TMP DP  RH WIND       PRES   REMARKS
COLUMBUS       CLOUDY    30  24  78 CALM      30.28S
OSU AIRPORT    CLOUDY    29  24  82 CALM      30.28S
BOLTON FIELD   MOCLDY    26  25  97 MISG      30.28S FOG
RICKENBACK AFB CLOUDY    30  26  86 CALM      30.28S
NEWARK         CLOUDY    30  26  85 CALM      30.27F
MARION         CLOUDY    27  24  89 S3        30.27S FOG
LANCASTER      CLOUDY    36  26  67 CALM      30.28F HAZE
ZANESVILLE     CLOUDY    29  23  78 CALM      30.27F
NEW PHILLY     CLOUDY    30  23  75 CALM      30.28F
$$



USA.gov is the U.S. government's official web portal to all federal, state and local government web resources and services.